User: anonymous   Login
Location: Unspecified
(0.0000°N, 0.0000°E)
Time: 23:02:08
(UTC+00:00)
Language:

ONEWEB-0548 - Orbit

View from above orbital plane
View from above orbital plane
View from above satellite
View from above satellite

Ground track
Ground track

The orbit is defined by the following mean orbital elements,

1 56050U          26145.32505948 +.00000000 +00000-0 +22771-3 0 00005
2 56050  87.9104 233.3096 0002361  92.3516 267.7886 13.16594588    05
Epoch (UTC): 25 May 2026 07:48:05
Eccentricity: 0.0002361
inclination: 87.9104°
perigee height: 1196 km
apogee height: 1200 km
right ascension of ascending node: 233.3096°
argument of perigee: 92.3516°
revolutions per day: 13.16594588
mean anomaly at epoch: 267.7886°

The dashed part of the orbit path shows where the satellite is in the earth's shadow,  

DLR